This is the latest recevied weather packets stored in our database for station/object N2PUI. If no packets are shown the sender has not sent any weather packets the latest 10 day(s).
| Time | Temp. | Humidity | Pressure | Rain* | Wind** | Luminosity | Snow |
|---|---|---|---|---|---|---|---|
| 1777565889 | 10.56° C | 74% | 1009.2 hPa | 0 mm | - | 293 W/m² | - |
| 1777565585 | 10° C | 75% | 1009.3 hPa | 0 mm | - | 628 W/m² | - |
| 1777565281 | 9.44° C | 77% | 1009.5 hPa | 0 mm | - | 587 W/m² | - |
| 1777564977 | 10° C | 76% | 1009.2 hPa | 0 mm | - | 345 W/m² | - |
| 1777564674 | 10.56° C | 76% | 1009.3 hPa | 0 mm | - | 356 W/m² | - |
| 1777564369 | 10° C | 78% | 1009.5 hPa | 0 mm | - | 433 W/m² | - |
| 1777564065 | 10° C | 79% | 1009.4 hPa | 0 mm | - | 250 W/m² | - |
| 1777563761 | 8.89° C | 80% | 1009.3 hPa | 0 mm | - | 274 W/m² | - |
| 1777563458 | 8.89° C | 82% | 1009.5 hPa | 0 mm | - | 368 W/m² | - |
| 1777563152 | 8.33° C | 83% | 1009.4 hPa | 0 mm | - | 315 W/m² | - |
| 1777562848 | 8.33° C | 83% | 1009.4 hPa | 0 mm | - | 233 W/m² | - |
| 1777562545 | 8.33° C | 84% | 1009.3 hPa | 0 mm | - | 294 W/m² | - |
| 1777562243 | 8.33° C | 85% | 1009.2 hPa | 0 mm | - | 157 W/m² | - |
| 1777561941 | 8.33° C | 85% | 1009.1 hPa | 0 mm | - | 159 W/m² | - |
| 1777561638 | 7.78° C | 85% | 1009.4 hPa | 0 mm | - | 152 W/m² | - |
| 1777561333 | 8.33° C | 85% | 1009.6 hPa | 0 mm | - | 206 W/m² | - |
| 1777561028 | 7.78° C | 85% | 1009.4 hPa | 0 mm | - | 108 W/m² | - |
| 1777560724 | 7.78° C | 85% | 1009.2 hPa | 0 mm | - | 198 W/m² | - |
| 1777560421 | 7.78° C | 86% | 1009.4 hPa | 0 mm | - | 196 W/m² | - |
| 1777560119 | 7.78° C | 86% | 1009.2 hPa | 0 mm | - | 114 W/m² | - |
| 1777559815 | 7.78° C | 86% | 1009.3 hPa | 0 mm | - | 106 W/m² | - |
| 1777559512 | 7.78° C | 86% | 1009 hPa | 0 mm | - | 176 W/m² | - |
| 1777559208 | 8.33° C | 86% | 1009 hPa | 0 mm | - | 180 W/m² | - |
| 1777558903 | 8.33° C | 86% | 1009.1 hPa | 0 mm | - | 164 W/m² | - |
| 1777558599 | 7.78° C | 86% | 1009.1 hPa | 0 mm | - | 156 W/m² | - |
* Rain latest hour (hover to see other rain measurements)
** Current wind speed in m/s (hover to see current wind gust speed)